Regional Weather Roundup
Issued by NWS Upton, NY

Current Version | Previous Version | Graphics & Text | Print | Product List | Glossary Off
Versions: 1 2 3 4 5 6 7 8 9 10 11 12 13 14 15 16 17 18 19 20 21 22 23 24 25 26 27 28 29 30 31 32 33 34 35 36 37 38 39 40 41 42 43 44 45 46 47 48 49 50

000
ASUS41 KOKX 051904
RWROKX

REGIONAL WEATHER ROUNDUP
NATIONAL WEATHER SERVICE NEW YORK NY
200 PM EST FRI FEB 05 2016

NOTE: "FAIR" INDICATES FEW OR NO CLOUDS BELOW 12,000 FEET WITH NO
SIGNIFICANT WEATHER AND/OR OBSTRUCTIONS TO VISIBILITY.

NYZ071-072-176-178-NJZ106-104-052000-
NEW YORK CITY METRO AREA


CITY           SKY/WX    TMP DP  RH WIND       PRES   REMARKS
CENTRAL PARK   SUNNY     37  26  64 NW6       30.11R WCI  32
LAGUARDIA APRT MOSUNNY   39  26  59 NW13      30.09R WCI  31
KENNEDY INTL   MOSUNNY   38  35  89 NW17      30.10R WCI  28
NEWARK/LIBERTY PTSUNNY   39  29  67 W9G20     30.11R WCI  33
BRNX BOT. GARD   N/A     37  28  70 W16       30.09R WCI  28
TETERBORO      MOSUNNY   38  26  62 W7        30.09R WCI  33
$$

NYZ177-179-078>081-052000-
LONG ISLAND NEW YORK

CITY           SKY/WX    TMP DP  RH WIND       PRES   REMARKS
FARMINGDALE    CLOUDY    33  27  78 NW12      30.07S WCI  24
ISLIP          FLURRIES  33  28  81 NW14G25   30.03R WCI  23
SHIRLEY        LGT SNOW  32  29  88 N17G29    30.04R FOG     WCI  21
RIVERHEAD        N/A     32  30  93 W6        30.06R WCI  26
WESTHAMPTON    LGT SNOW  32  30  92 N22G31    30.03R VSB 3/4 WCI  19
EAST HAMPTON   LGT SNOW  32  30  94 N18G29    29.99R VSB 1   WCI  20
MONTAUK POINT    N/A     33  31  92 NW16G30   29.97R WCI  23
$$

NYZ052-065-067-052000-
HUDSON VALLEY

CITY           SKY/WX    TMP DP  RH WIND       PRES   REMARKS
WHITE PLAINS   PTSUNNY   37  18  46 NW18      30.04R WCI  27
NEWBURGH       NOT AVBL
MONTGOMERY     PTSUNNY   40  16  37 N18G28    30.07R WCI  31
POUGHKEEPSIE   MOSUNNY   42  14  32 N14G21    30.07R
ALBANY         MOSUNNY   41  12  30 NW21G29   30.06F
$$

NJZ001-105-106-008-010-013-015-019>022-104-052000-
NEW JERSEY

CITY           SKY/WX    TMP DP  RH WIND       PRES   REMARKS
NEWARK/LIBERTY PTSUNNY   39  29  67 W9G20     30.11R WCI  33
TETERBORO      MOSUNNY   38  26  62 W7        30.09R WCI  33
CALDWELL       CLOUDY    40  20  44 NW6       30.10R
MORRISTOWN     PTSUNNY   39  23  52 N10G21    30.11R WCI  32
SOMERVILLE     CLOUDY    40  20  44 NW14G24   30.11R WCI  32
SUSSEX         CLOUDY    40  15  36 NW8G21    30.10R WCI  34
ANDOVER          N/A     37  14  38 NW10G22   30.11R WCI  30
TRENTON        CLOUDY    39  21  48 NW13G23   30.13R WCI  31
MILLVILLE      CLOUDY    41  27  57 NW12G18   30.17R
ATLANTIC CITY  MOSUNNY   37  32  82 NW12      30.16R WCI  29
WRIGHTSTOWN    NOT AVBL
TOMS RIVER     SUNNY     36  28  75 NW12      30.13S WCI  27
BELMAR         SUNNY     36  25  64 W13G20    30.11R WCI  27
$$

PAZ047>061-062-071-052000-
EASTERN PENNSYLVANIA

CITY           SKY/WX    TMP DP  RH WIND       PRES   REMARKS
PHILADELPHIA   PTSUNNY   42  20  41 NW15      30.17S
ALLENTOWN      CLOUDY    40  17  39 NW18G25   30.16R WCI  31
SCRANTON       CLOUDY    33  18  53 NW13      30.17R WCI  24
$$

CTZ002-004>006-009-010-012-RIZ004-006-007-MAZ004-011-015-052000-
SOUTHERN NEW ENGLAND
 IN CT

CITY           SKY/WX    TMP DP  RH WIND       PRES   REMARKS
BRADLEY INTL   CLOUDY    30  26  85 N3        30.01S
HARTFORD       CLOUDY    31  27  85 N9        30.01R WCI  23
DANBURY        MOSUNNY   37  16  42 NW15G24   30.06R WCI  28
WTRBRY/OXFORD  PTSUNNY   34  18  51 NW10G22   30.03R WCI  26
BRIDGEPORT     CLOUDY    35  28  75 NW8       30.05R WCI  29
MERIDEN        CLOUDY    33  27  78 N3        30.04R
NEW HAVEN      CLOUDY    33  29  85 NW9       30.04R WCI  25
CHESTER        CLOUDY    30  28  93 N15G24    30.00R VSB 1   WCI  19
GROTON         LGT SNOW  30  30 100 N20G25    29.97R VSB 1   WCI  17
WILLIMANTIC    LGT SNOW  31  25  78 NW13G29   29.99R WCI  21

 IN RI

CITY           SKY/WX    TMP DP  RH WIND       PRES   REMARKS
PROVIDENCE     LGT SNOW  30  29  96 N16G31    29.95R VSB 3/4 WCI  19
BLOCK ISLAND   CLOUDY    34  32  93 N17G24    29.93R VSB 3/4 WCI  23
WESTERLY       SNOW      31  29  92 NW18G29   29.97R VSB 1/2 WCI  19

 IN MA

CITY           SKY/WX    TMP DP  RH WIND       PRES   REMARKS
BOSTON         SNOW      30  30 100 NW14G26   29.95F VSB 1/4 WCI  19
WORCESTER      LGT SNOW  26  22  84 N16G28    29.91S VSB 3/4 WCI  14
WESTFIELD      CLOUDY    32  24  72 NW14G20   30.00F WCI  22
PROVINCETOWN   SNOW      33  32  96 N25G36    29.87S VSB 1/2 WCI  20
NANTUCKET      LGT SNOW  34  32  92 N25G36    29.82R VSB 1   WCI  21
$$

ANZ330-335-338-340-345-350-353-355-052000-
COASTAL MARINE OBSERVATIONS


STATION/POSITION TIME  SKY/WX   TEMP    WIND        PRES    VSBY  WAVE
                                AIR SEA DIR/SP/G                  HT/PER
                 (UTC)          (F)     (DEG/KT/KT) (MB)    (MI)  (FT/S)
NY HARB ENTRANCE 1750            36 44  350/ 23/ 27 1017.1          5/ 5
4S FIRE IS       NOT AVBL
20S FIRE ISLAND  1750            34 45  340/ 27/ 35 1015.4          7/ 6
GREAT SOUTH BAY  NOT AVBL
23SW MTP         1850            35 47  340/ 25/ 31 1013.1          7/ 5
HUDSON CANYON    1750            39 51              1013.7         12/ 9
KINGS POINT      1800            33 39   30/ 12/ 13 1017.8
EXECUTION ROCKS  NOT AVBL
CENTRAL LI SOUND NOT AVBL
EASTERN LI SOUND 1815            34 42  340/ 19/ 31   N/A
ROBBINS REEF     1800            35     300/ 14/ 17 1018.3
$$


>>>>>>>>>>>>>>>>>>>>>>>>>>>> KEY <<<<<<<<<<<<<<<<<<<<<<<<<<<
>                                                          <
>     SKY/WX - SKY CONDITION/PRESENT WEATHER               <
>     TMP    - TEMPERATURE IN FAHRENHEIT                   <
>     DP     - DEWPOINT IN FAHRENHEIT                      <
>     RH     - RELATIVE HUMIDITY IN PERCENT                <
>     WIND   - DIRECTION AND SPEED IN MPH                  <
>     PRES   - MEAN SEA LEVEL PRESSURE IN INCHES OF HG     <
>     WCI    - WIND CHILL INDEX                            <
>     VSB    - VISIBILITY IN MILES                         <
>     HX     - HEAT INDEX                                  <
>     TC     - TEMPERATURE IN CELSIUS                      <
>     VRB    - VARIABLE WIND DIRECTION                     <
>                                                          <
>>>>>>>>>>>>>>>>>>>>>>>>>>>> KEY <<<<<<<<<<<<<<<<<<<<<<<<<<<





USA.gov is the U.S. government's official web portal to all federal, state and local government web resources and services.